Location: Newark
(50.4348°N, 30.5552°E)
Time: 02:31:15
(UTC+00:00)

Altair - Pass Details

Date: 20 January 2020
Orbit: 1502 x 1682 km, 47.2° (Epoch: 19 February)

Event Time Altitude Azimuth Distance (km) Brightness Sun altitude
Rises 12:01:51 0° 277° (W) 4,938 10.4 15.1°
Reaches altitude 10° 12:05:03 10° 275° (W) 3,946 10.0 14.9°
Maximum altitude 12:15:04 68° 196° (SSW) 1,765 8.5 14.1°
Drops below altitude 10° 12:24:50 10° 116° (ESE) 3,845 9.6 13.3°
Sets 12:27:54 0° 114° (ESE) 4,806 10.0 13.0°
